Luke Air Force Base, AZ

2:33 PM MST on August 24, 2016 (GMT -0700)
Luke Air Force Base

Weather History for KLUF - February, 2014

Change the Weather History Date:

Tuesday, February 18, 2014

  Actual Average Record
Temperature  
Mean Temperature 66 °F -  
Max Temperature 82 °F 72 °F 87 °F (1981)
Min Temperature 51 °F 40 °F 27 °F (1990)
Cooling Degree Days 2    
Growing Degree Days 16 (Base 50)    
Moisture  
Dew Point 34 °F    
Average Humidity 33    
Maximum Humidity 53    
Minimum Humidity 17    
Precipitation  
Precipitation 0.00 in - - ()
Sea Level Pressure  
Sea Level Pressure 29.90 in    
Wind  
Wind Speed 5 mph (NNW)    
Max Wind Speed 10 mph    
Max Gust Speed -    
Visibility 10 miles    
Events      
Averages and records for this station are not official NWS values.
T = Trace of Precipitation, MM = Missing Value Source: NWS Daily Summary

Daily Weather History Graph

Daily Weather History Graph

Search for Another Location

Airport or City:

Trip Planner

Search our weather history database for the weather conditions in past years. The results will help you decide how hot, cold, wet, or windy it might be!

Date:

Astronomy

Feb. 18, 2014 Rise Set
Actual Time 7:10 AM MST 6:16 PM MST
Civil Twilight 6:45 AM MST 6:42 PM MST
Nautical Twilight 6:16 AM MST 7:11 PM MST
Astronomical Twilight 5:47 AM MST 7:40 PM MST
Moon 10:00 PM MST (2/18) 8:57 AM MST (2/18)
Length of Visible Light 11h 57m
Length of Day
11h 06m
Waning Gibbous, 87% of the Moon is Illuminated
Feb 18
Waning Gibbous
Feb 22
Last Quarter
Mar 1
New
Mar 8
First Quarter
Mar 16
Full

Hourly Weather History & Observations

Time (MST) Temp. Dew Point Humidity Pressure Visibility Wind Dir Wind Speed Gust Speed Precip Events Conditions
12:58 AM 58.3 °F 34.7 °F 41% 29.91 in 10.0 mi NNW 4.6 mph - N/A   Clear
1:58 AM 55.9 °F 34.0 °F 44% 29.91 in 10.0 mi NNW 10.4 mph - N/A   Clear
2:58 AM 54.5 °F 33.3 °F 45% 29.90 in 10.0 mi North 4.6 mph - N/A   Clear
3:58 AM 53.2 °F 32.7 °F 46% 29.90 in 10.0 mi North 5.8 mph - N/A   Clear
4:58 AM 52.0 °F 32.7 °F 48% 29.91 in 10.0 mi North 6.9 mph - N/A   Clear
5:58 AM 51.8 °F 31.1 °F 45% 29.93 in 10.0 mi NNW 8.1 mph - N/A   Clear
6:58 AM 51.3 °F 31.5 °F 47% 29.94 in 10.0 mi North 1.2 mph - N/A   Partly Cloudy
7:58 AM 52.9 °F 36.1 °F 53% 29.97 in 10.0 mi NNW 4.6 mph - N/A   Partly Cloudy
8:58 AM 58.8 °F 37.4 °F 45% 29.99 in 10.0 mi North 3.5 mph - N/A   Partly Cloudy
9:58 AM 66.4 °F 34.2 °F 30% 29.99 in 10.0 mi Calm Calm - N/A   Partly Cloudy
10:58 AM 71.4 °F 30.6 °F 22% 29.97 in 10.0 mi Variable 1.2 mph - N/A   Partly Cloudy
11:58 AM 74.1 °F 31.1 °F 21% 29.95 in 10.0 mi East 2.3 mph - N/A   Partly Cloudy
12:58 PM 77.2 °F 31.1 °F 19% 29.92 in 10.0 mi NW 3.5 mph - N/A   Mostly Cloudy
1:58 PM 80.4 °F 31.1 °F 17% 29.89 in 10.0 mi Variable 2.3 mph - N/A   Mostly Cloudy
2:58 PM 81.3 °F 31.8 °F 17% 29.87 in 10.0 mi SSE 4.6 mph - N/A   Mostly Cloudy
3:58 PM 82.4 °F 32.5 °F 17% 29.86 in 10.0 mi SW 5.8 mph - N/A   Mostly Cloudy
4:58 PM 81.9 °F 34.9 °F 18% 29.85 in 10.0 mi SSW 4.6 mph - N/A   Mostly Cloudy
5:58 PM 79.3 °F 34.9 °F 20% 29.85 in 10.0 mi SW 3.5 mph - N/A   Mostly Cloudy
6:58 PM 75.7 °F 35.4 °F 23% 29.86 in 10.0 mi WSW 3.5 mph - N/A   Mostly Cloudy
7:58 PM 71.8 °F 39.9 °F 31% 29.87 in 10.0 mi NW 3.5 mph - N/A   Mostly Cloudy
8:58 PM 69.3 °F 38.5 °F 32% 29.88 in 10.0 mi NW 4.6 mph - N/A   Mostly Cloudy
9:58 PM 65.7 °F 38.5 °F 37% 29.87 in 10.0 mi NE 5.8 mph - N/A   Mostly Cloudy
10:58 PM 63.3 °F 37.6 °F 39% 29.87 in 10.0 mi NW 5.8 mph - N/A   Clear
11:58 PM 61.9 °F 38.3 °F 42% 29.86 in 10.0 mi SW 2.3 mph - N/A   Clear